This demonstration page uses our WeatherBlox Daily Observations layout. Learn more.

Left ArrowRight Arrow

Hourly Observations for January 7, 2018

Temp ( °F °C ) Dew Point ( °F °C ) Humidity (%) Winds ( mph kmh ) Pressure ( in mb ) Visibility ( mi km ) Precip ( " mm )
12:53 am 00:53 Clear 25 -3.9 16 -8.9 69 69 S 5 7 29.99 1016 10 16 0.00 0.00
1:53 am 01:53 Clear 25 -3.9 16 -8.9 69 69 S 3 6 29.95 1014 10 16 0.00 0.00
2:53 am 02:53 Clear 25 -3.9 17 -8.3 72 72 S 6 9 29.93 1014 10 16 0.00 0.00
3:53 am 03:53 Clear 25 -3.9 18 -7.8 75 75 S 3 6 29.93 1014 10 16 0.00 0.00
4:53 am 04:53 Mostly Clear 26 -3.3 18 -7.8 71 71 SSW 3 6 29.93 1013 10 16 0.00 0.00
7:53 am 07:53 Partly Cloudy 26 -3.3 20 -6.7 78 78 WSW 7 11 29.93 1014 10 16 0.00 0.00
8:53 am 08:53 Mostly Sunny 28 -2.2 21 -6.1 75 75 W 10 17 29.93 1014 9 14 0.00 0.00
9:53 am 09:53 Cloudy 31 -0.6 24 -4.4 76 76 NW 7 11 29.94 1014 10 16 0.00 0.00
10:53 am 10:53 Cloudy with Light Wintry Mix 33 0.6 27 -2.8 78 78 NW 12 19 29.96 1015 10 16 0.00 0.03
11:53 am 11:53 Cloudy with Light Rain 36 2.2 32 0 86 86 NNW 8 13 29.96 1015 10 16 0.00 0.03
12:53 pm 12:53 Cloudy 39 3.9 35 1.7 86 86 NNW 9 15 29.93 1014 10 16 0.00 0.03
1:53 pm 13:53 Mostly Sunny 43 6.1 36 2.2 76 76 NNW 13 20 29.92 1013 10 16 0.00 0.00
2:53 pm 14:53 Sunny 45 7.2 36 2.2 71 71 NW 10 17 29.93 1013 10 16 0.00 0.00
3:53 pm 15:53 Cloudy 42 5.6 34 1.1 73 73 NNW 15 24 29.95 1014 10 16 0.00 0.00
4:10 pm 16:10 Cloudy 42 5.6 34 1.1 73 73 NNW 16 26 29.94 1014 10 16 0.00 0.00
4:53 pm 16:53 Mostly Cloudy 41 5 33 0.6 73 73 NNW 14 22 29.98 1015 10 16 0.00 0.00
5:02 pm 17:02 Partly Cloudy 40 4.4 33 0.6 77 77 NNW 13 20 30.00 1016 10 16 0.00 0.00
5:53 pm 17:53 Clear 37 2.8 32 0 82 82 NW 10 17 30.01 1016 10 16 0.00 0.00
6:53 pm 18:53 Clear 35 1.7 30 -1.1 82 82 N 12 19 30.03 1017 10 16 0.00 0.00
10:53 pm 22:53 Clear 32 0 28 -2.2 85 85 NW 10 17 30.09 1019 10 16 0.00 0.00
11:53 pm 23:53 Clear 30 -1.1 26 -3.3 85 85 NW 9 15 30.11 1020 10 16 0.00 0.00

Powered by AerisWeather